Flag for Germany Weather past 2 weeks in Garmisch-Partenkirchen, Bavaria, Germany

Now
32 °F

Snow flurries. Partly cloudy.


Feels Like: 26 °F
Forecast: 19 / 36 °F
Wind: 7 mph from East

Location: Innsbruck-Flughafen

Current Time: Mar 5, 2015 at 5:42:40 AM

Latest Report: Mar 5, 2015 at 4:50 AM


Visibility: N/A

Pressure: 30.39 "Hg

Humidity: 93%

Dew point: 30 °F

Location of Garmisch-PartenkirchenLocation

Historic Weather in Garmisch-Partenkirchen — Graph

°F

Garmisch-Partenkirchen temperature yesterday

Maximum temperature yesterday: 43 °F (at 12:50 PM)
Minimum temperature yesterday: 32 °F (at 12:20 AM)
Average temperature yesterday: 36 °F

Past Weeks' High & Low Weather Summary

 TemperatureHumidityPressure
High52 °F (Feb 19, 3:20 PM)100% (Feb 19, 3:20 AM)30.69 "Hg (Feb 19, 3:20 AM)
Low21 °F (Feb 19, 7:20 AM)28% (Feb 20, 2:20 PM)29.50 "Hg (Feb 21, 3:20 PM)
Average36 °F79%30.01 "Hg
* Reported Feb 18 4:20 AM — Mar 5 4:20 AM, Garmisch-Partenkirchen, Weather by CustomWeather, © 2015

Note: Actual official high and low records may vary slightly from our data, if they occured in-between our weather recording intervals... More about our weather records

Advertising

Garmisch-Partenkirchen weather history for previous 24 hours

 ConditionsComfort  
Time TempWeatherWind HumidityBarometerVisibility
4:20 AM
Thu, Mar 5
32 °FSnow flurries. Passing clouds.2 mph93%30.39 "HgN/A
3:50 AM32 °FLight snow. Partly cloudy.5 mph93%30.39 "HgN/A
2:50 AM32 °FSnow flurries. Passing clouds.3 mph100%30.42 "HgN/A
2:20 AM32 °FSnow flurries. Passing clouds.5 mph93%30.39 "HgN/A
1:50 AM32 °FSnow flurries. Passing clouds.2 mph93%30.39 "HgN/A
1:20 AM32 °FSnow flurries. Passing clouds.2 mph93%30.39 "HgN/A
12:50 AM32 °FLight snow. Passing clouds.3 mph93%30.39 "HgN/A
12:20 AM32 °FSnow showers. Passing clouds.8 mph93%30.39 "HgN/A
11:50 PM
Wed, Mar 4
34 °FSnow flurries. Passing clouds.10 mph87%30.39 "Hg1 mi
11:20 PM34 °FLight snow. Passing clouds.10 mph81%30.36 "HgN/A
10:50 PM36 °FPartly cloudy.14 mph70%30.36 "HgN/A
10:20 PM37 °FPassing clouds.7 mph60%30.33 "HgN/A
9:50 PM36 °FPassing clouds.1 mph70%30.33 "HgN/A
9:20 PM36 °FPassing clouds.2 mph75%30.33 "HgN/A
8:50 PM37 °FPassing clouds.2 mph65%30.30 "HgN/A
8:20 PM36 °FPassing clouds.3 mph81%30.30 "HgN/A
7:50 PM37 °FPassing clouds.1 mph70%30.30 "HgN/A
7:20 PM37 °FPassing clouds.2 mph75%30.30 "HgN/A
6:50 PM37 °FPassing clouds.5 mph75%30.30 "HgN/A
6:20 PM39 °FPassing clouds.5 mph70%30.27 "HgN/A
5:50 PM39 °FScattered showers. Partly sunny.6 mph70%30.27 "HgN/A
5:20 PM39 °FPartly sunny.5 mph70%30.24 "HgN/A
4:50 PM39 °FPartly sunny.3 mph70%30.24 "HgN/A
4:20 PM39 °FPartly sunny.7 mph75%30.24 "HgN/A
3:50 PM41 °FScattered showers. Broken clouds.8 mph70%30.24 "HgN/A
3:20 PM41 °FScattered showers. Broken clouds.6 mph70%30.21 "HgN/A
2:50 PM41 °FSnow flurries. Partly sunny.7 mph66%30.21 "HgN/A
2:20 PM43 °FScattered showers. Partly sunny.5 mph57%30.21 "HgN/A
1:50 PM43 °FPartly sunny.6 mph66%30.21 "HgN/A
1:20 PM43 °FBroken clouds.3 mph66%30.24 "HgN/A
12:50 PM43 °FBroken clouds.5 mph61%30.24 "HgN/A
12:20 PM41 °FBroken clouds.3 mph70%30.24 "HgN/A
11:50 AM39 °FPartly sunny.2 mph75%30.24 "HgN/A
11:20 AM39 °FPartly sunny.3 mph75%30.24 "HgN/A
10:50 AM39 °FPartly sunny.1 mph81%30.24 "HgN/A
10:20 AM37 °FBroken clouds.2 mph87%30.27 "HgN/A
9:50 AM34 °FLight snow. Broken clouds.3 mph93%30.27 "HgN/A
9:20 AM34 °FLight snow. Broken clouds.2 mph93%30.27 "Hg3 mi
8:50 AM34 °FLight snow. Fog.1 mph93%30.27 "Hg2 mi
8:20 AM32 °FSnow. Broken clouds.2 mph100%30.24 "Hg1 mi
7:50 AM34 °FSnow. Broken clouds.5 mph93%30.24 "Hg1 mi
7:20 AM34 °FLight snow. Broken clouds.3 mph87%30.21 "Hg2 mi
6:50 AM34 °FBroken clouds.5 mph87%30.18 "HgN/A
6:20 AM34 °FPartly cloudy.2 mph87%30.18 "HgN/A
5:50 AM32 °FPartly cloudy.2 mph87%30.18 "HgN/A
5:20 AM32 °FPassing clouds.5 mph93%30.18 "HgN/A
Weather by CustomWeather, © 2015

See weather overviewHow to use our weather pages